Weather History for KVCB - January, 2012

Change the Weather History Date:

Tuesday, January 3, 2012

  Actual Average Record
Temperature  
Mean Temperature 48 °F -  
Max Temperature 64 °F 52 °F 79 °F (1963)
Min Temperature 33 °F 33 °F 23 °F (1961)
Degree Days  
Heating Degree Days 16    
Moisture  
Dew Point 38 °F    
Average Humidity 79    
Maximum Humidity 100    
Minimum Humidity 39    
Precipitation  
Precipitation 0.00 in - - ()
Sea Level Pressure  
Sea Level Pressure 30.34 in    
Wind  
Wind Speed 1 mph (West)    
Max Wind Speed 6 mph    
Max Gust Speed -    
Visibility 7 miles    
Events Fog    
Averages and records for this station are not official NWS values.
T = Trace of Precipitation, MM = Missing Value Source: NWS Daily Summary

Daily Weather History Graph

Daily Weather History Graph

Search for Another Location

Airport or City:

Trip Planner

Search our weather history database for the weather conditions in past years. The results will help you decide how hot, cold, wet, or windy it might be!

Date:

Astronomy

Jan. 03, 2012 Rise Set
Actual Time 7:25 AM PST 4:59 PM PST
Civil Twilight 6:55 AM PST 5:28 PM PST
Nautical Twilight 6:22 AM PST 6:02 PM PST
Astronomical Twilight 5:50 AM PST 6:34 PM PST
Moon 12:48 PM PST (1/3) 2:22 AM PST (1/3)
Length of Visible Light 10h 33m
Length of Day
9h 34m
Waxing Gibbous, 73% of the Moon is Illuminated
Jan 3
Waxing Gibbous
Jan 8
Full
Jan 16
Last Quarter
Jan 22
New
Jan 30
First Quarter

Hourly Weather History & Observations

Time (PST) Temp. Windchill Dew Point Humidity Pressure Visibility Wind Dir Wind Speed Gust Speed Precip Events Conditions
12:53 AM 41.0 °F - 39.0 °F 93% 30.31 in 7.0 mi Calm Calm - N/A   Clear
1:53 AM 39.0 °F - 37.9 °F 96% 30.32 in 5.0 mi Calm Calm - N/A   Clear
2:53 AM 39.9 °F 36.7 °F 39.0 °F 97% 30.33 in 4.0 mi SW 4.6 mph - N/A   Clear
3:53 AM 39.0 °F - 37.9 °F 96% 30.32 in 6.0 mi Calm Calm - N/A   Clear
4:53 AM 37.9 °F - 37.0 °F 97% 30.32 in 5.0 mi Calm Calm - N/A   Clear
5:22 AM 35.6 °F - 35.6 °F 100% 30.33 in 4.0 mi Calm Calm - N/A   Clear
5:53 AM 37.9 °F - 37.0 °F 97% 30.34 in 3.0 mi Calm Calm - N/A   Clear
6:53 AM 37.0 °F - 36.0 °F 96% 30.35 in 3.0 mi Calm Calm - N/A   Clear
7:33 AM 35.6 °F - 33.8 °F 93% 30.35 in 1.5 mi Calm Calm - N/A   Clear
7:40 AM 33.8 °F - 33.8 °F 100% 30.36 in 0.2 mi Calm Calm - N/A Fog Fog
7:53 AM 36.0 °F - 35.1 °F 97% 30.36 in 0.5 mi Calm Calm - N/A Fog Fog
8:01 AM 35.6 °F - 35.6 °F 100% 30.36 in 2.0 mi Calm Calm - N/A   Clear
8:37 AM 42.8 °F - 41.0 °F 93% 30.37 in 3.0 mi Calm Calm - N/A   Clear
8:53 AM 46.0 °F - 43.0 °F 89% 30.38 in 5.0 mi Calm Calm - N/A   Clear
9:53 AM 52.0 °F - 44.1 °F 74% 30.39 in 10.0 mi Calm Calm - N/A   Clear
10:53 AM 57.0 °F - 43.0 °F 59% 30.37 in 10.0 mi Variable 4.6 mph - N/A   Clear
11:53 AM 61.0 °F - 41.0 °F 48% 30.34 in 10.0 mi North 5.8 mph - N/A   Clear
12:53 PM 64.0 °F - 39.9 °F 41% 30.31 in 10.0 mi Calm Calm - N/A   Clear
1:53 PM 64.9 °F - 39.0 °F 39% 30.30 in 10.0 mi Variable 3.5 mph - N/A   Clear
2:53 PM 64.9 °F - 39.0 °F 39% 30.29 in 10.0 mi NE 4.6 mph - N/A   Clear
3:53 PM 64.0 °F - 39.0 °F 40% 30.29 in 10.0 mi Calm Calm - N/A   Clear
4:53 PM 52.0 °F - 37.0 °F 57% 30.30 in 10.0 mi Calm Calm - N/A   Clear
5:53 PM 48.0 °F - 37.0 °F 66% 30.31 in 10.0 mi WSW 3.5 mph - N/A   Clear
6:53 PM 43.0 °F 41.3 °F 36.0 °F 76% 30.32 in 10.0 mi WSW 3.5 mph - N/A   Clear
7:53 PM 42.1 °F - 35.1 °F 76% 30.34 in 10.0 mi Calm Calm - N/A   Clear
8:53 PM 42.1 °F 40.2 °F 36.0 °F 79% 30.34 in 10.0 mi WSW 3.5 mph - N/A   Clear
9:53 PM 39.9 °F - 36.0 °F 86% 30.35 in 10.0 mi Calm Calm - N/A   Clear
10:53 PM 39.9 °F - 36.0 °F 86% 30.35 in 10.0 mi Calm Calm - N/A   Clear